Regional Weather Roundup
Issued by NWS

Home | Current Version | Previous Version | Graphics & Text | Print | Product List | Glossary On
Versions: 1 2 3 4 5 6 7 8 9 10 11 12 13 14 15 16 17 18 19 20 21 22 23 24 25 26 27 28 29 30 31 32 33 34 35 36 37 38 39 40 41 42 43 44 45 46 47 48 49 50
000
ASUS43 KOAX 052010
RWRNE

WEATHER ROUNDUP FOR NEBRASKA
NATIONAL WEATHER SERVICE OMAHA NE
300 PM CDT SUN JUL 05 2015

NOTES: SATELLITE DATA IS BEING USED TO AUGMENT CLOUD COVER ABOVE
       12000 FEET.
       "FAIR" INDICATES FEW OR NO CLOUDS BELOW 12,000 FEET WITH NO
       SIGNIFICANT WEATHER AND/OR OBSTRUCTIONS TO VISIBILITY.

  * THESE STATIONS DO NOT REPORT WEATHER SUCH AS RAIN...SNOW OR FOG.

NEZ001>004-019>022-054>056-052100-
NEBRASKA PANHANDLE

CITY           SKY/WX    TMP DP  RH WIND       PRES   REMARKS
SCOTTSBLUFF    PTSUNNY   94  55  26 VRB7      29.83F HX  92
ALLIANCE       MOSUNNY   92  59  33 NW13G20   29.83F HX  91
CHADRON        PTSUNNY   88  67  49 N10       29.83R HX  91
KIMBALL          N/A    N/A N/A N/A MISG        N/A
SIDNEY         MOSUNNY   95  54  25 MISG      29.86F HX  93
$$

NEZ057>060-069>072-079>082-052100-
SOUTHWEST NEBRASKA

CITY           SKY/WX    TMP DP  RH WIND       PRES   REMARKS
NORTH PLATTE   SUNNY     93  67  42 SE12G18   29.80F HX  96
IMPERIAL       SUNNY     98  56  24 S7        29.80F HX  96
LEXINGTON      SUNNY     92  69  46 SE13      29.79F HX  98
MCCOOK         SUNNY    103  57  21 SW12G23   29.75F HX 102
OGALLALA       SUNNY     95  62  33 SE9       29.79F HX  96
$$

NEZ005>010-023>029-035>040-094-052100-
NORTH CENTRAL NEBRASKA

CITY           SKY/WX    TMP DP  RH WIND       PRES   REMARKS
VALENTINE      PTSUNNY   93  66  40 SE9       29.77S HX  96
AINSWORTH      MOSUNNY   92  70  49 S13       29.79F HX  97
BROKEN BOW     SUNNY     91  70  49 S15G28    29.81S HX  96
O`NEILL        MOSUNNY   87  73  62 S13       29.79S HX  94
ORD            MOSUNNY   89  69  51 SE18G26   29.78F HX  93
THEDFORD       SUNNY     92  69  47 S16       29.80F HX  96
$$

NEZ041-046>049-061>064-073>077-083>087-052100-
SOUTH CENTRAL NEBRASKA

CITY           SKY/WX    TMP DP  RH WIND       PRES   REMARKS
GRAND ISLAND   MOSUNNY   90  73  57 SE16G24   29.81F HX  98
AURORA         MOSUNNY   90  73  58 S16G22    29.81F HX  98
HASTINGS       SUNNY     94  69  44 S16G26    29.80F HX  99
HEBRON         SUNNY     93  68  43 S14       29.82F HX  98
HOLDREGE       SUNNY     95  65  36 S15       29.79F HX  97
KEARNEY *      SUNNY     93  70  46 S16G24    29.79F HX  99
YORK           SUNNY     88  75  66 S16G23    29.82F HX  97
$$

NEZ011>018-030>034-042>045-052100-
NORTHEAST NEBRASKA

CITY           SKY/WX    TMP DP  RH WIND       PRES   REMARKS
NORFOLK        SUNNY     85  74  69 S16G24    29.80F HX  92
ALBION         SUNNY     85  71  62 S18G24    29.80S HX  90
BLAIR          MOSUNNY   85  71  62 SE18      29.84F HX  90
COLUMBUS *     SUNNY     86  73  66 S13G21    29.82F HX  93
FREMONT        MOSUNNY   86  73  64 S16       29.84F HX  92
TEKAMAH        MOSUNNY   89  73  59 S17G23    29.83F HX  97
WAYNE          SUNNY     83  75  75 S16       29.81F HX  91
$$

NEZ050>053-065>068-078-088>093-052100-
SOUTHEAST NEBRASKA

CITY           SKY/WX    TMP DP  RH WIND       PRES   REMARKS
LINCOLN        SUNNY     91  73  55 S22G30    29.83F HX  99
OMAHA EPPLEY   PTSUNNY   88  73  61 SE23G29   29.84F HX  95
BEATRICE       SUNNY     89  74  59 S14G24    29.84F HX  98
FALLS CITY     MOSUNNY   90  74  59 S17G23    29.87F HX  99
NEBRASKA CITY  PTSUNNY   86  70  58 S14G22    29.87F HX  90
PLATTSMOUTH    PTSUNNY   87  72  61 SE15G23   29.86F HX  93
$$

NEZ044-045-051>053-067-052100-
OMAHA AREA

CITY           SKY/WX    TMP DP  RH WIND       PRES   REMARKS
OMAHA EPPLEY   PTSUNNY   88  73  61 SE23G29   29.84F HX  95
BLAIR          MOSUNNY   85  71  62 SE18      29.84F HX  90
FREMONT        MOSUNNY   86  73  64 S16       29.84F HX  92
MILLARD        MOSUNNY   87  75  68 SE16G22   29.84F HX  96
OFFUTT AFB     PTSUNNY   88  75  65 SE17G24   29.84F HX  97
PLATTSMOUTH    PTSUNNY   87  72  61 SE15G23   29.86F HX  93
WAHOO          FAIR      88  74  63 S18G26    29.83F HX  96
$$



USA.gov is the U.S. government's official web portal to all federal, state and local government web resources and services.